Location: Newark
(50.0336°N, 22.0047°E)
Time: 11:08:24
(UTC+00:00)

N. Korean satellite - Pass Details

Date: 31 January 2020
Orbit: 456 x 505 km, 97.2° (Epoch: 25 February)

Event Time Altitude Azimuth Distance (km) Brightness Sun altitude
Rises 03:08:13 0° 33° (NNE) 2,562 10.8 -28.9°
Reaches altitude 10° 03:11:40 10° 69° (ENE) 1,687 10.2 -28.3°
Maximum altitude 03:12:51 11° 88° (E) 1,609 10.1 -28.1°
Drops below altitude 10° 03:14:02 10° 107° (ESE) 1,691 10.1 -27.9°
Sets 03:17:30 0° 143° (SE) 2,577 10.7 -27.4°
